Philadelphia Wings Airport, PA

9:16 PM EST on December 15, 2017 (GMT -0500)
Philadelphia Wings Airport

Weather History for KLOM - March, 2013

Change the Weather History Date:

Wednesday, March 6, 2013

  Actual Average (KPNE) Record (KPNE)
Temperature  
Mean Temperature 36 °F -  
Max Temperature 39 °F 45 °F 66 °F (2004)
Min Temperature 33 °F 28 °F 8 °F (2015)
Degree Days  
Heating Degree Days 29    
Moisture  
Dew Point 33 °F    
Average Humidity 83    
Maximum Humidity 93    
Minimum Humidity 75    
Precipitation  
Precipitation 0.00 in - - ()
Sea Level Pressure  
Sea Level Pressure 29.81 in    
Wind  
Wind Speed 12 mph (ENE)    
Max Wind Speed 24 mph    
Max Gust Speed 39 mph    
Visibility 9 miles    
Events      
Averages and records for this station are not official NWS values.
T = Trace of Precipitation, MM = Missing Value Source: NWS Daily Summary

Daily Weather History Graph

Daily Weather History Graph

Search for Another Location

Airport or City:

Trip Planner

Search our weather history database for the weather conditions in past years. The results will help you decide how hot, cold, wet, or windy it might be!

Date:

Astronomy

Mar. 06, 2013 Rise Set
Actual Time 6:26 AM EST 5:58 PM EST
Civil Twilight 5:59 AM EST 6:25 PM EST
Nautical Twilight 5:28 AM EST 6:57 PM EST
Astronomical Twilight 4:56 AM EST 7:28 PM EST
Moon 2:33 AM EST (3/6) 12:37 PM EST (3/6)
Length of Visible Light 12h 26m
Length of Day
11h 32m
Waning Crescent, 30% of the Moon is Illuminated
Mar 6
Waning Crescent
Mar 11
New
Mar 19
First Quarter
Mar 27
Full
Apr 3
Last Quarter

Hourly Weather History & Observations

Time (EST) Temp. Windchill Dew Point Humidity Pressure Visibility Wind Dir Wind Speed Gust Speed Precip Events Conditions
12:15 AM 33.8 °F 28.6 °F 30.2 °F 87% 29.92 in 10.0 mi East 5.8 mph - N/A   Clear
12:35 AM 33.8 °F 29.6 °F 30.2 °F 87% 29.92 in 10.0 mi ENE 4.6 mph - N/A   Clear
12:55 AM 33.8 °F 27.7 °F 30.2 °F 87% 29.90 in 10.0 mi ENE 6.9 mph - N/A   Clear
1:15 AM 35.6 °F 29.2 °F 30.2 °F 81% 29.90 in 10.0 mi East 8.1 mph - N/A   Clear
1:35 AM 35.6 °F 29.2 °F 32.0 °F 87% 29.89 in 10.0 mi ENE 8.1 mph - N/A   Clear
1:55 AM 35.6 °F 29.2 °F 32.0 °F 87% 29.87 in 10.0 mi ENE 8.1 mph - N/A   Clear
2:15 AM 35.6 °F 29.2 °F 32.0 °F 87% 29.86 in 10.0 mi ENE 8.1 mph - N/A   Clear
2:35 AM 35.6 °F 28.6 °F 32.0 °F 87% 29.85 in 10.0 mi ENE 9.2 mph - N/A   Clear
2:55 AM 35.6 °F 27.5 °F 32.0 °F 87% 29.83 in 10.0 mi ENE 11.5 mph - N/A   Clear
3:15 AM 35.6 °F 28.0 °F 32.0 °F 87% 29.82 in 10.0 mi ENE 10.4 mph - N/A   Clear
3:35 AM 37.4 °F 30.8 °F 32.0 °F 81% 29.82 in 10.0 mi ENE 9.2 mph - N/A   Clear
3:55 AM 37.4 °F 29.3 °F 32.0 °F 81% 29.81 in 10.0 mi ENE 12.7 mph 19.6 mph N/A   Clear
4:15 AM 37.4 °F 28.5 °F 32.0 °F 81% 29.80 in 10.0 mi ENE 15.0 mph 18.4 mph N/A   Clear
4:35 AM 37.4 °F 27.8 °F 32.0 °F 81% 29.79 in 10.0 mi ENE 17.3 mph 24.2 mph N/A   Scattered Clouds
4:55 AM 37.4 °F 29.3 °F 32.0 °F 81% 29.79 in 10.0 mi ENE 12.7 mph - N/A   Mostly Cloudy
5:15 AM 39.2 °F 30.5 °F 32.0 °F 75% 29.79 in 10.0 mi ENE 16.1 mph 26.5 mph N/A   Overcast
5:35 AM 39.2 °F 29.8 °F 32.0 °F 75% 29.79 in 10.0 mi East 18.4 mph 26.5 mph N/A   Overcast
5:55 AM 39.2 °F 29.6 °F 32.0 °F 75% 29.78 in 10.0 mi ENE 19.6 mph 29.9 mph N/A   Overcast
6:15 AM 39.2 °F 29.6 °F 32.0 °F 75% 29.77 in 10.0 mi ENE 19.6 mph 26.5 mph N/A   Overcast
6:35 AM 39.2 °F 29.8 °F 32.0 °F 75% 29.77 in 10.0 mi ENE 18.4 mph 29.9 mph N/A   Overcast
6:55 AM 39.2 °F 29.3 °F 32.0 °F 75% 29.78 in 10.0 mi ENE 20.7 mph 34.5 mph N/A   Overcast
7:15 AM 39.2 °F 30.5 °F 33.8 °F 81% 29.79 in 10.0 mi ENE 16.1 mph 29.9 mph N/A   Overcast
7:35 AM 39.2 °F 30.2 °F 33.8 °F 81% 29.79 in 10.0 mi ENE 17.3 mph 27.6 mph N/A   Overcast
7:55 AM 39.2 °F 29.8 °F 33.8 °F 81% 29.78 in 10.0 mi ENE 18.4 mph 28.8 mph N/A   Overcast
8:15 AM 39.2 °F 29.3 °F 33.8 °F 81% 29.78 in 10.0 mi ENE 20.7 mph 32.2 mph N/A   Mostly Cloudy
8:35 AM 39.2 °F 29.3 °F 33.8 °F 81% 29.78 in 5.0 mi ENE 20.7 mph 33.4 mph N/A   Mostly Cloudy
8:55 AM 39.2 °F 30.2 °F 33.8 °F 81% 29.77 in 7.0 mi ENE 17.3 mph 29.9 mph N/A   Overcast
9:15 AM 39.2 °F 28.5 °F 35.6 °F 87% 29.78 in 5.0 mi ENE 24.2 mph 33.4 mph N/A   Overcast
9:35 AM 37.4 °F 26.9 °F 35.6 °F 93% 29.78 in 5.0 mi ENE 20.7 mph 29.9 mph N/A   Overcast
9:55 AM 37.4 °F 27.8 °F 35.6 °F 93% 29.77 in 7.0 mi NE 17.3 mph 39.1 mph N/A   Mostly Cloudy
10:15 AM 37.4 °F 26.9 °F 35.6 °F 93% 29.77 in 5.0 mi NE 20.7 mph 33.4 mph N/A   Overcast